﻿測定場所 (Monitoring sites),日付 (Measurement date),時間 (Measurement time),線量率 最大値 (max) μGy/h,線量率 最小値 (min) μGy/h,線量率 平均値 (average) μGy/h,
江戸川 (Edogawa),2017-06-11,23:01～24:00,0.0605,0.0535,0.0561,
江戸川 (Edogawa),2017-06-11,22:01～23:00,0.0610,0.0530,0.0565,
江戸川 (Edogawa),2017-06-11,21:01～22:00,0.0584,0.0532,0.0563,
江戸川 (Edogawa),2017-06-11,20:01～21:00,0.0597,0.0521,0.0566,
江戸川 (Edogawa),2017-06-11,19:01～20:00,0.0617,0.0526,0.0563,
江戸川 (Edogawa),2017-06-11,18:01～19:00,0.0597,0.0525,0.0564,
江戸川 (Edogawa),2017-06-11,17:01～18:00,0.0603,0.0532,0.0563,
江戸川 (Edogawa),2017-06-11,16:01～17:00,0.0603,0.0533,0.0564,
江戸川 (Edogawa),2017-06-11,15:01～16:00,0.0600,0.0528,0.0563,
江戸川 (Edogawa),2017-06-11,14:01～15:00,0.0600,0.0536,0.0566,
江戸川 (Edogawa),2017-06-11,13:01～14:00,0.0603,0.0531,0.0562,
江戸川 (Edogawa),2017-06-11,12:01～13:00,0.0604,0.0522,0.0565,
江戸川 (Edogawa),2017-06-11,11:01～12:00,0.0604,0.0526,0.0567,
江戸川 (Edogawa),2017-06-11,10:01～11:00,0.0606,0.0522,0.0564,
江戸川 (Edogawa),2017-06-11,09:01～10:00,0.0608,0.0537,0.0566,
江戸川 (Edogawa),2017-06-11,08:01～09:00,0.0605,0.0529,0.0568,
江戸川 (Edogawa),2017-06-11,07:01～08:00,0.0607,0.0525,0.0567,
江戸川 (Edogawa),2017-06-11,06:01～07:00,0.0604,0.0535,0.0566,
江戸川 (Edogawa),2017-06-11,05:01～06:00,0.0604,0.0541,0.0567,
江戸川 (Edogawa),2017-06-11,04:01～05:00,0.0606,0.0522,0.0566,
江戸川 (Edogawa),2017-06-11,03:01～04:00,0.0598,0.0526,0.0565,
江戸川 (Edogawa),2017-06-11,02:01～03:00,0.0598,0.0532,0.0567,
江戸川 (Edogawa),2017-06-11,01:01～02:00,0.0605,0.0529,0.0567,
江戸川 (Edogawa),2017-06-11,00:01～01:00,0.0611,0.0546,0.0569,
江戸川 (Edogawa),2017-06-10,23:01～24:00,0.0599,0.0528,0.0569,
江戸川 (Edogawa),2017-06-10,22:01～23:00,0.0594,0.0530,0.0565,
江戸川 (Edogawa),2017-06-10,21:01～22:00,0.0612,0.0536,0.0570,
江戸川 (Edogawa),2017-06-10,20:01～21:00,0.0606,0.0534,0.0569,
江戸川 (Edogawa),2017-06-10,19:01～20:00,0.0612,0.0536,0.0571,
江戸川 (Edogawa),2017-06-10,18:01～19:00,0.0592,0.0537,0.0566,
江戸川 (Edogawa),2017-06-10,17:01～18:00,0.0601,0.0536,0.0569,
江戸川 (Edogawa),2017-06-10,16:01～17:00,0.0601,0.0524,0.0568,
江戸川 (Edogawa),2017-06-10,15:01～16:00,0.0596,0.0541,0.0570,
江戸川 (Edogawa),2017-06-10,14:01～15:00,0.0611,0.0536,0.0570,
江戸川 (Edogawa),2017-06-10,13:01～14:00,0.0630,0.0540,0.0572,
江戸川 (Edogawa),2017-06-10,12:01～13:00,0.0612,0.0536,0.0567,
江戸川 (Edogawa),2017-06-10,11:01～12:00,0.0609,0.0523,0.0565,
江戸川 (Edogawa),2017-06-10,10:01～11:00,0.0602,0.0527,0.0564,
江戸川 (Edogawa),2017-06-10,09:01～10:00,0.0592,0.0529,0.0561,
江戸川 (Edogawa),2017-06-10,08:01～09:00,0.0592,0.0533,0.0564,
江戸川 (Edogawa),2017-06-10,07:01～08:00,0.0619,0.0531,0.0566,
江戸川 (Edogawa),2017-06-10,06:01～07:00,0.0602,0.0519,0.0564,
江戸川 (Edogawa),2017-06-10,05:01～06:00,0.0596,0.0525,0.0566,
江戸川 (Edogawa),2017-06-10,04:01～05:00,0.0595,0.0533,0.0563,
江戸川 (Edogawa),2017-06-10,03:01～04:00,0.0591,0.0537,0.0563,
江戸川 (Edogawa),2017-06-10,02:01～03:00,0.0603,0.0521,0.0565,
江戸川 (Edogawa),2017-06-10,01:01～02:00,0.0595,0.0528,0.0564,
江戸川 (Edogawa),2017-06-10,00:01～01:00,0.0589,0.0539,0.0564,
江戸川 (Edogawa),2017-06-09,23:01～24:00,0.0592,0.0535,0.0563,
江戸川 (Edogawa),2017-06-09,22:01～23:00,0.0599,0.0523,0.0563,
江戸川 (Edogawa),2017-06-09,21:01～22:00,0.0599,0.0525,0.0561,
江戸川 (Edogawa),2017-06-09,20:01～21:00,0.0619,0.0523,0.0564,
江戸川 (Edogawa),2017-06-09,19:01～20:00,0.0597,0.0541,0.0566,
江戸川 (Edogawa),2017-06-09,18:01～19:00,0.0612,0.0523,0.0565,
江戸川 (Edogawa),2017-06-09,17:01～18:00,0.0607,0.0537,0.0566,
江戸川 (Edogawa),2017-06-09,16:01～17:00,0.0607,0.0541,0.0564,
江戸川 (Edogawa),2017-06-09,15:01～16:00,0.0599,0.0538,0.0570,
江戸川 (Edogawa),2017-06-09,14:01～15:00,0.0601,0.0524,0.0568,
江戸川 (Edogawa),2017-06-09,13:01～14:00,0.0602,0.0520,0.0567,
江戸川 (Edogawa),2017-06-09,12:01～13:00,0.0603,0.0518,0.0568,
江戸川 (Edogawa),2017-06-09,11:01～12:00,0.0594,0.0528,0.0567,
江戸川 (Edogawa),2017-06-09,10:01～11:00,0.0598,0.0540,0.0565,
江戸川 (Edogawa),2017-06-09,09:01～10:00,0.0607,0.0527,0.0563,
江戸川 (Edogawa),2017-06-09,08:01～09:00,0.0603,0.0534,0.0564,
江戸川 (Edogawa),2017-06-09,07:01～08:00,0.0593,0.0534,0.0565,
江戸川 (Edogawa),2017-06-09,06:01～07:00,0.0602,0.0533,0.0566,
江戸川 (Edogawa),2017-06-09,05:01～06:00,0.0597,0.0526,0.0563,
江戸川 (Edogawa),2017-06-09,04:01～05:00,0.0614,0.0541,0.0568,
江戸川 (Edogawa),2017-06-09,03:01～04:00,0.0600,0.0530,0.0566,
江戸川 (Edogawa),2017-06-09,02:01～03:00,0.0597,0.0529,0.0562,
江戸川 (Edogawa),2017-06-09,01:01～02:00,0.0597,0.0518,0.0562,
江戸川 (Edogawa),2017-06-09,00:01～01:00,0.0589,0.0529,0.0559,
江戸川 (Edogawa),2017-06-08,23:01～24:00,0.0583,0.0519,0.0557,
江戸川 (Edogawa),2017-06-08,22:01～23:00,0.0590,0.0523,0.0559,
江戸川 (Edogawa),2017-06-08,21:01～22:00,0.0597,0.0519,0.0557,
江戸川 (Edogawa),2017-06-08,20:01～21:00,0.0593,0.0527,0.0559,
江戸川 (Edogawa),2017-06-08,19:01～20:00,0.0585,0.0511,0.0555,
江戸川 (Edogawa),2017-06-08,18:01～19:00,0.0591,0.0527,0.0558,
江戸川 (Edogawa),2017-06-08,17:01～18:00,0.0595,0.0524,0.0559,
江戸川 (Edogawa),2017-06-08,16:01～17:00,0.0590,0.0529,0.0558,
江戸川 (Edogawa),2017-06-08,15:01～16:00,0.0612,0.0519,0.0558,
江戸川 (Edogawa),2017-06-08,14:01～15:00,0.0609,0.0529,0.0559,
江戸川 (Edogawa),2017-06-08,13:01～14:00,0.0599,0.0529,0.0564,
江戸川 (Edogawa),2017-06-08,12:01～13:00,0.0617,0.0540,0.0582,
江戸川 (Edogawa),2017-06-08,11:01～12:00,0.0622,0.0541,0.0580,
江戸川 (Edogawa),2017-06-08,10:01～11:00,0.0617,0.0543,0.0572,
江戸川 (Edogawa),2017-06-08,09:01～10:00,0.0598,0.0502,0.0558,
江戸川 (Edogawa),2017-06-08,08:01～09:00,0.0594,0.0528,0.0561,
江戸川 (Edogawa),2017-06-08,07:01～08:00,0.0595,0.0529,0.0560,
江戸川 (Edogawa),2017-06-08,06:01～07:00,0.0599,0.0527,0.0559,
江戸川 (Edogawa),2017-06-08,05:01～06:00,0.0597,0.0532,0.0558,
江戸川 (Edogawa),2017-06-08,04:01～05:00,0.0593,0.0519,0.0559,
江戸川 (Edogawa),2017-06-08,03:01～04:00,0.0599,0.0538,0.0564,
江戸川 (Edogawa),2017-06-08,02:01～03:00,0.0598,0.0537,0.0567,
江戸川 (Edogawa),2017-06-08,01:01～02:00,0.0613,0.0523,0.0559,
江戸川 (Edogawa),2017-06-08,00:01～01:00,0.0594,0.0540,0.0568,
江戸川 (Edogawa),2017-06-07,23:01～24:00,0.0608,0.0536,0.0571,
江戸川 (Edogawa),2017-06-07,22:01～23:00,0.0597,0.0521,0.0568,
江戸川 (Edogawa),2017-06-07,21:01～22:00,0.0598,0.0537,0.0564,
江戸川 (Edogawa),2017-06-07,20:01～21:00,0.0594,0.0532,0.0564,
江戸川 (Edogawa),2017-06-07,19:01～20:00,0.0594,0.0526,0.0563,
江戸川 (Edogawa),2017-06-07,18:01～19:00,0.0590,0.0520,0.0558,
江戸川 (Edogawa),2017-06-07,17:01～18:00,0.0588,0.0528,0.0554,
江戸川 (Edogawa),2017-06-07,16:01～17:00,0.0595,0.0516,0.0555,
江戸川 (Edogawa),2017-06-07,15:01～16:00,0.0594,0.0522,0.0558,
江戸川 (Edogawa),2017-06-07,14:01～15:00,0.0589,0.0519,0.0560,
江戸川 (Edogawa),2017-06-07,13:01～14:00,0.0591,0.0522,0.0558,
江戸川 (Edogawa),2017-06-07,12:01～13:00,0.0594,0.0530,0.0559,
江戸川 (Edogawa),2017-06-07,11:01～12:00,0.0588,0.0532,0.0559,
江戸川 (Edogawa),2017-06-07,10:01～11:00,0.0601,0.0530,0.0561,
江戸川 (Edogawa),2017-06-07,09:01～10:00,0.0599,0.0515,0.0556,
江戸川 (Edogawa),2017-06-07,08:01～09:00,0.0589,0.0507,0.0559,
江戸川 (Edogawa),2017-06-07,07:01～08:00,0.0586,0.0524,0.0558,
江戸川 (Edogawa),2017-06-07,06:01～07:00,0.0595,0.0531,0.0559,
江戸川 (Edogawa),2017-06-07,05:01～06:00,0.0582,0.0528,0.0557,
江戸川 (Edogawa),2017-06-07,04:01～05:00,0.0602,0.0527,0.0563,
江戸川 (Edogawa),2017-06-07,03:01～04:00,0.0589,0.0525,0.0558,
江戸川 (Edogawa),2017-06-07,02:01～03:00,0.0600,0.0527,0.0560,
江戸川 (Edogawa),2017-06-07,01:01～02:00,0.0592,0.0529,0.0558,
江戸川 (Edogawa),2017-06-07,00:01～01:00,0.0614,0.0507,0.0557,
江戸川 (Edogawa),2017-06-06,23:01～24:00,0.0590,0.0529,0.0561,
江戸川 (Edogawa),2017-06-06,22:01～23:00,0.0586,0.0506,0.0559,
江戸川 (Edogawa),2017-06-06,21:01～22:00,0.0596,0.0515,0.0558,
江戸川 (Edogawa),2017-06-06,20:01～21:00,0.0591,0.0519,0.0558,
江戸川 (Edogawa),2017-06-06,19:01～20:00,0.0602,0.0531,0.0558,
江戸川 (Edogawa),2017-06-06,18:01～19:00,0.0599,0.0529,0.0556,
江戸川 (Edogawa),2017-06-06,17:01～18:00,0.0601,0.0533,0.0562,
江戸川 (Edogawa),2017-06-06,16:01～17:00,0.0603,0.0527,0.0560,
江戸川 (Edogawa),2017-06-06,15:01～16:00,0.0584,0.0523,0.0561,
江戸川 (Edogawa),2017-06-06,14:01～15:00,0.0595,0.0527,0.0560,
江戸川 (Edogawa),2017-06-06,13:01～14:00,0.0590,0.0531,0.0559,
江戸川 (Edogawa),2017-06-06,12:01～13:00,0.0592,0.0524,0.0561,
江戸川 (Edogawa),2017-06-06,11:01～12:00,0.0589,0.0524,0.0556,
江戸川 (Edogawa),2017-06-06,10:01～11:00,0.0592,0.0529,0.0556,
江戸川 (Edogawa),2017-06-06,09:01～10:00,0.0598,0.0526,0.0560,
江戸川 (Edogawa),2017-06-06,08:01～09:00,0.0599,0.0528,0.0561,
江戸川 (Edogawa),2017-06-06,07:01～08:00,0.0604,0.0523,0.0561,
江戸川 (Edogawa),2017-06-06,06:01～07:00,0.0589,0.0528,0.0561,
江戸川 (Edogawa),2017-06-06,05:01～06:00,0.0592,0.0516,0.0560,
江戸川 (Edogawa),2017-06-06,04:01～05:00,0.0592,0.0536,0.0562,
江戸川 (Edogawa),2017-06-06,03:01～04:00,0.0589,0.0527,0.0560,
江戸川 (Edogawa),2017-06-06,02:01～03:00,0.0599,0.0526,0.0556,
江戸川 (Edogawa),2017-06-06,01:01～02:00,0.0585,0.0507,0.0553,
江戸川 (Edogawa),2017-06-06,00:01～01:00,0.0582,0.0516,0.0559,
江戸川 (Edogawa),2017-06-05,23:01～24:00,0.0589,0.0533,0.0560,
江戸川 (Edogawa),2017-06-05,22:01～23:00,0.0600,0.0516,0.0560,
江戸川 (Edogawa),2017-06-05,21:01～22:00,0.0599,0.0533,0.0568,
江戸川 (Edogawa),2017-06-05,20:01～21:00,0.0634,0.0557,0.0596,
江戸川 (Edogawa),2017-06-05,19:01～20:00,0.0638,0.0552,0.0592,
江戸川 (Edogawa),2017-06-05,18:01～19:00,0.0615,0.0526,0.0566,
江戸川 (Edogawa),2017-06-05,17:01～18:00,0.0596,0.0538,0.0563,
江戸川 (Edogawa),2017-06-05,16:01～17:00,0.0596,0.0537,0.0566,
江戸川 (Edogawa),2017-06-05,15:01～16:00,0.0607,0.0530,0.0560,
江戸川 (Edogawa),2017-06-05,14:01～15:00,0.0593,0.0542,0.0566,
江戸川 (Edogawa),2017-06-05,13:01～14:00,0.0605,0.0520,0.0563,
江戸川 (Edogawa),2017-06-05,12:01～13:00,0.0599,0.0538,0.0563,
江戸川 (Edogawa),2017-06-05,11:01～12:00,0.0605,0.0525,0.0561,
江戸川 (Edogawa),2017-06-05,10:01～11:00,0.0598,0.0528,0.0560,
江戸川 (Edogawa),2017-06-05,09:01～10:00,0.0620,0.0521,0.0563,
江戸川 (Edogawa),2017-06-05,08:01～09:00,0.0604,0.0527,0.0561,
江戸川 (Edogawa),2017-06-05,07:01～08:00,0.0595,0.0531,0.0558,
江戸川 (Edogawa),2017-06-05,06:01～07:00,0.0607,0.0519,0.0564,
江戸川 (Edogawa),2017-06-05,05:01～06:00,0.0588,0.0526,0.0562,
江戸川 (Edogawa),2017-06-05,04:01～05:00,0.0595,0.0524,0.0560,
江戸川 (Edogawa),2017-06-05,03:01～04:00,0.0607,0.0533,0.0563,
江戸川 (Edogawa),2017-06-05,02:01～03:00,0.0595,0.0529,0.0561,
江戸川 (Edogawa),2017-06-05,01:01～02:00,0.0608,0.0522,0.0561,
江戸川 (Edogawa),2017-06-05,00:01～01:00,0.0600,0.0537,0.0562,
